Location: Gälforsberget
(66.6500°N, 22.4167°E)
Time: 17:51:56
(UTC+00:00)

SeaSat 1 - Pass Details

Date: 11 April 2026
Orbit: 736 x 740 km, 108.0° (Epoch: 16 May)

Event Time Altitude Azimuth Distance (km) Brightness Sun altitude
Exits shadow 20:20:01 13° 170° (S) 2,061 4.2 -11.1°
Maximum altitude 20:24:07 41° 238° (WSW) 1,075 3.3 -11.3°
Drops below altitude 10° 20:28:47 10° 308° (NW) 2,263 6.2 -11.6°
Sets 20:31:11 0° 316° (NW) 3,190 7.5 -11.7°
